Flag for Greece Weather past 2 weeks in Patras, Greece

57 °F

Thunderstorms. Broken clouds.

Feels Like: 55 °F
Forecast: 56 / 60 °F
Wind: 8 mph from Southwest

Location: Araxos Airport

Current Time: Nov 25, 2015 at 4:51:35 PM

Latest Report: Nov 25, 2015 at 3:50 PM

Visibility: 2 mi

Pressure: 29.65 "Hg

Humidity: 100%

Dew point: 57 °F

Location of PatrasLocation

Historic Weather in Patras — Graph


Patras temperature yesterday

Maximum temperature yesterday: 73 °F (at 12:50 PM)
Minimum temperature yesterday: 59 °F (at 12:50 AM)
Average temperature yesterday: 67 °F

Past Weeks' High & Low Weather Summary

High77 °F (Nov 11, 2:50 PM)100% (Nov 11, 12:50 AM)30.33 "Hg (Nov 11, 12:50 AM)
Low48 °F (Nov 16, 5:50 AM)41% (Nov 17, 12:50 PM)29.65 "Hg (Nov 25, 2:20 PM)
Average62 °F84%30.07 "Hg
* Reported Nov 10 3:20 PM — Nov 25 3:20 PM, Patras, Weather by CustomWeather, © 2015

Note: Actual official high and low records may vary slightly from our data, if they occured in-between our weather recording intervals... More about our weather records


Patras weather history for previous 24 hours

Time TempWeatherWind HumidityBarometerVisibility
3:20 PM
Wed, Nov 25
61 °FThunderstorms. More clouds than sun.14 mph83%29.68 "Hg1 mi
2:50 PM68 °FThunderstorms. Broken clouds.20 mph69%29.65 "Hg5 mi
2:20 PM68 °FThunderstorms. Broken clouds.18 mph73%29.65 "HgN/A
1:50 PM70 °FBroken clouds.17 mph69%29.68 "HgN/A
1:20 PM70 °FBroken clouds.20 mph69%29.71 "HgN/A
12:50 PM70 °FScattered clouds.17 mph64%29.74 "HgN/A
12:20 PM70 °FBroken clouds.20 mph64%29.77 "HgN/A
11:50 AM72 °FScattered clouds.18 mph61%29.77 "HgN/A
11:20 AM70 °FScattered clouds.20 mph64%29.80 "HgN/A
10:50 AM70 °FScattered clouds.20 mph64%29.83 "HgN/A
10:20 AM70 °FPassing clouds.14 mph69%29.83 "HgN/A
9:50 AM68 °FPassing clouds.12 mph64%29.86 "HgN/A
8:50 AM64 °FPassing clouds.10 mph73%29.89 "HgN/A
8:20 AM63 °FPassing clouds.No wind83%29.89 "HgN/A
7:50 AM57 °FPassing clouds.No wind94%29.89 "HgN/A
7:20 AM59 °FPassing clouds.3 mph88%29.89 "HgN/A
6:50 AM59 °FPassing clouds.No wind94%29.89 "HgN/A
6:20 AM63 °FPassing clouds.8 mph77%29.92 "HgN/A
5:50 AM61 °FPassing clouds.3 mph83%29.92 "HgN/A
5:20 AM61 °FPassing clouds.3 mph83%29.92 "HgN/A
4:50 AM59 °FPassing clouds.7 mph82%30.09 "HgN/A
3:50 AM61 °FPassing clouds.7 mph88%29.95 "HgN/A
2:50 AM63 °FPassing clouds.7 mph83%29.98 "HgN/A
1:50 AM64 °FPassing clouds.8 mph78%30.01 "HgN/A
12:50 AM61 °FPassing clouds.5 mph88%30.01 "HgN/A
11:50 PM
Tue, Nov 24
64 °FPassing clouds.6 mph78%30.04 "HgN/A
10:50 PM64 °FPassing clouds.7 mph83%30.04 "HgN/A
9:50 PM64 °FPartly cloudy.6 mph83%30.07 "HgN/A
8:50 PM66 °FPartly cloudy.7 mph83%30.07 "HgN/A
7:50 PM66 °FPartly cloudy.6 mph78%30.07 "HgN/A
7:20 PM66 °FPartly cloudy.6 mph78%30.07 "HgN/A
6:50 PM64 °FPassing clouds.6 mph83%30.09 "HgN/A
6:20 PM64 °FPassing clouds.6 mph83%30.09 "HgN/A
5:50 PM66 °FPassing clouds.6 mph78%30.09 "HgN/A
5:20 PM66 °FPassing clouds.3 mph78%30.09 "HgN/A
4:50 PM68 °FPassing clouds.6 mph73%30.09 "HgN/A
4:20 PM68 °FPartly sunny.6 mph73%30.09 "HgN/A
Weather by CustomWeather, © 2015

See weather overviewHow to use our weather pages